FW6296 Weather Reports


Display with metric or nautical units.
time (UTC)temp
F
wind
direction
speed
MPH
gust
MPH
rain 1hr
in
rain 24hr
in
rain mn
in
humidity
%
barometer
mb
20260905114537 77 0.0 0.0 0.00 0.00 0.00 90 1012.8
20260905113517 77 0.0 0.0 0.00 0.00 0.00 90 1012.7
20260905112517 77 241 0.0 2.0 0.00 0.00 0.00 90 1012.5
20260905111518 77 244 1.0 3.0 0.00 0.00 0.00 91 1012.5
20260905110518 77 0.0 0.0 0.00 0.00 0.00 91 1012.6
20260905105518 76 0.0 0.0 0.00 0.00 0.00 92 1012.6
20260905104539 76 0.0 0.0 0.00 0.00 0.00 91 1012.7
20260905103536 76 117 0.0 1.0 0.00 0.00 0.00 91 1012.7
20260905102516 76 0.0 0.0 0.00 0.00 0.00 90 1012.7
20260905101516 77 0.0 0.0 0.00 0.00 0.00 89 1012.7
20260905100516 78 0.0 0.0 0.00 0.00 0.00 88 1012.7
20260905095536 78 0.0 0.0 0.00 0.00 0.00 88 1012.6
20260905094516 78 225 0.0 2.0 0.00 0.00 0.00 88 1012.5
20260905093517 79 241 0.0 2.0 0.00 0.00 0.00 88 1012.6
20260905092516 79 278 0.0 2.0 0.00 0.00 0.00 87 1012.7
20260905091537 79 0.0 0.0 0.00 0.00 0.00 87 1012.7
20260905090517 79 0.0 0.0 0.00 0.00 0.00 87 1012.7
20260905085517 78 0.0 0.0 0.00 0.00 0.00 87 1012.7
20260905084517 78 254 0.0 1.0 0.00 0.00 0.00 88 1012.7
20260905083538 78 0.0 0.0 0.00 0.00 0.00 88 1012.7
20260905082518 78 0.0 0.0 0.00 0.00 0.00 88 1012.7
20260905081538 78 0.0 0.0 0.00 0.00 0.00 88 1012.7
20260905080518 78 2 0.0 2.0 0.00 0.00 0.00 88 1012.7
20260905075538 78 0.0 0.0 0.00 0.00 0.00 89 1012.6
20260905074516 77 0.0 0.0 0.00 0.00 0.00 90 1012.6
20260905073516 78 0.0 0.0 0.00 0.00 0.00 89 1012.6
20260905072536 78 0.0 0.0 0.00 0.00 0.00 89 1012.6
20260905071516 79 121 0.0 1.0 0.00 0.00 0.00 86 1012.7
20260905070516 79 0.0 0.0 0.00 0.00 0.00 87 1012.7
20260905065516 79 0.0 0.0 0.00 0.00 0.00 86 1012.7
20260905064516 79 0.0 0.0 0.00 0.00 0.00 86 1012.7
20260905063517 79 0.0 0.0 0.00 0.00 0.00 86 1012.8
20260905062517 79 241 0.0 2.0 0.00 0.00 0.00 86 1012.9
20260905061537 79 0.0 0.0 0.00 0.00 0.00 85 1012.9
20260905060537 79 0.0 0.0 0.00 0.00 0.00 85 1013.0
20260905055517 80 98 0.0 3.0 0.00 0.00 0.00 84 1013.0
20260905054517 80 0.0 0.0 0.00 0.00 0.00 83 1013.1
20260905053518 81 0.0 0.0 0.00 0.00 0.00 82 1013.0
20260905052538 81 222 0.0 2.0 0.00 0.00 0.00 81 1013.1
20260905051518 81 235 0.0 2.0 0.00 0.00 0.00 80 1013.0
20260905050518 81 234 0.0 3.0 0.00 0.00 0.00 80 1012.9
20260905045515 82 237 0.0 3.0 0.00 0.00 0.00 79 1012.9
20260905044516 82 241 0.0 2.0 0.00 0.00 0.00 79 1013.1
20260905043515 82 243 0.0 2.0 0.00 0.00 0.00 78 1013.2
20260905042516 82 0.0 0.0 0.00 0.00 0.00 78 1013.3
20260905041516 81 85 0.0 0.0 0.00 0.00 0.00 79 1013.3
20260905040516 81 223 0.0 2.0 0.00 0.00 0.00 81 1013.3
20260905035516 80 0.0 0.0 0.00 0.00 0.00 82 1013.4
20260905034537 81 0.0 0.0 0.00 0.00 0.00 82 1013.6
20260905033517 82 0.0 0.0 0.00 0.00 0.00 79 1013.6
20260905032517 83 0.0 0.0 0.00 0.00 0.00 78 1013.7
20260905031517 82 0.0 0.0 0.00 0.00 0.00 78 1013.7
20260905030517 82 0.0 0.0 0.00 0.00 0.00 78 1013.7
20260905025517 82 0.0 0.0 0.00 0.00 0.00 79 1013.7
20260905024538 82 0.0 0.0 0.00 0.00 0.00 78 1013.6
20260905023518 82 84 0.0 2.0 0.00 0.00 0.00 78 1013.5
20260905022519 82 91 0.0 1.0 0.00 0.00 0.00 79 1013.3
20260905021538 82 0.0 0.0 0.00 0.00 0.00 78 1013.3
20260905020515 83 84 1.0 3.0 0.00 0.00 0.00 76 1013.3
20260905015515 85 84 0.0 3.0 0.00 0.00 0.00 73 1013.2
20260905014516 86 97 0.0 1.0 0.00 0.00 0.00 70 1013.1
20260905013516 86 0.0 0.0 0.00 0.00 0.00 70 1012.9
20260905012516 86 0.0 0.0 0.00 0.00 0.00 69 1012.9
20260905011556 87 0.0 0.0 0.00 0.00 0.00 68 1012.7
20260905010536 87 244 0.0 2.0 0.00 0.00 0.00 67 1012.4
20260905005537 87 269 0.0 2.0 0.00 0.00 0.00 67 1012.4
20260905004517 87 229 0.0 3.0 0.00 0.00 0.00 66 1012.3
20260905003517 88 246 0.0 3.0 0.00 0.00 0.00 66 1012.6
20260905002517 88 267 1.0 3.0 0.00 0.00 0.00 65 1012.6
20260905001517 89 265 0.0 3.0 0.00 0.00 0.00 65 1012.5
20260905000558 90 259 0.0 2.0 0.00 0.00 0.00 64 1012.5
20260904235518 90 271 1.0 3.0 0.00 0.00 0.00 62 1012.5
20260904234518 91 282 1.0 3.0 0.00 0.00 0.00 61 1012.6
20260904233518 92 278 2.0 4.0 0.00 0.00 0.00 59 1012.7
20260904232516 92 277 2.0 5.0 0.00 0.00 0.00 59 1012.7
20260904231518 93 273 2.0 4.0 0.00 0.00 0.00 59 1012.7
20260904230544 93 275 2.0 4.0 0.00 0.00 0.00 60 1012.7
20260904225536 94 271 1.0 4.0 0.00 0.00 0.00 59 1012.7
20260904224516 94 278 2.0 6.0 0.00 0.00 0.00 59 1012.6
20260904223536 94 291 1.0 5.0 0.00 0.00 0.00 58 1012.7
20260904222517 93 277 2.0 5.0 0.00 0.00 0.00 58 1012.7
20260904221517 93 276 2.0 5.0 0.00 0.00 0.00 58 1012.6
20260904220516 94 278 2.0 5.0 0.00 0.00 0.00 57 1012.5
20260904215517 95 291 1.0 6.0 0.00 0.00 0.00 54 1012.5
20260904214537 95 276 3.0 6.0 0.00 0.00 0.00 54 1012.5
20260904213517 95 275 1.0 4.0 0.00 0.00 0.00 54 1012.4
20260904212517 95 260 1.0 4.0 0.00 0.00 0.00 53 1012.5
20260904211538 95 274 1.0 4.0 0.00 0.00 0.00 54 1012.7
20260904210538 95 270 1.0 5.0 0.00 0.00 0.00 54 1012.7
20260904205518 95 276 1.0 4.0 0.00 0.00 0.00 53 1013.0
20260904204538 95 271 2.0 6.0 0.00 0.00 0.00 54 1013.1
20260904203518 94 282 1.0 4.0 0.00 0.00 0.00 55 1013.2
20260904202518 94 64 1.0 4.0 0.00 0.00 0.00 55 1013.2
20260904201515 94 359 1.0 3.0 0.00 0.00 0.00 55 1013.3
20260904200516 93 276 1.0 4.0 0.00 0.00 0.00 57 1013.4
20260904195516 93 99 1.0 4.0 0.00 0.00 0.00 57 1013.5
20260904194516 93 352 1.0 4.0 0.00 0.00 0.00 55 1013.6
20260904193516 92 104 2.0 6.0 0.00 0.00 0.00 55 1013.9
20260904192536 92 83 1.0 5.0 0.00 0.00 0.00 55 1014.0
20260904191537 90 108 2.0 6.0 0.00 0.00 0.00 57 1014.2
20260904190517 90 100 3.0 6.0 0.00 0.00 0.00 60 1014.3
20260904185517 89 103 3.0 7.0 0.00 0.00 0.00 62 1014.4
20260904184517 89 103 3.0 9.0 0.00 0.00 0.00 62 1014.5
20260904183517 88 84 5.0 10.0 0.00 0.00 0.00 65 1014.8
20260904182517 87 85 7.0 14.0 0.00 0.00 0.00 65 1015.0
20260904181518 87 94 5.0 10.0 0.00 0.00 0.00 67 1015.1
20260904180558 86 92 5.0 13.0 0.00 0.00 0.00 67 1015.2
20260904175518 86 95 5.0 12.0 0.00 0.00 0.00 70 1015.6
20260904174518 86 91 8.0 12.0 0.00 0.00 0.00 68 1015.7
20260904173515 86 91 6.0 13.0 0.00 0.00 0.00 67 1015.7
20260904172515 86 90 6.0 14.0 0.00 0.00 0.00 68 1015.8
20260904171516 86 94 6.0 11.0 0.00 0.00 0.00 68 1016.0
20260904170536 87 90 6.0 11.0 0.00 0.00 0.00 68 1015.9
20260904165516 87 85 3.0 7.0 0.00 0.00 0.00 67 1016.0
20260904164517 88 83 4.0 9.0 0.00 0.00 0.00 68 1015.9
20260904163517 88 84 4.0 9.0 0.00 0.00 0.00 64 1015.7
20260904162516 88 86 3.0 6.0 0.00 0.00 0.00 63 1015.6
20260904161517 89 61 1.0 4.0 0.00 0.00 0.00 62 1015.6
20260904160517 89 83 3.0 7.0 0.00 0.00 0.00 63 1015.5
20260904155517 89 68 2.0 7.0 0.00 0.00 0.00 61 1015.3
20260904154517 89 12 1.0 4.0 0.00 0.00 0.00 60 1015.2
20260904153517 89 332 1.0 5.0 0.00 0.00 0.00 60 1015.1
20260904152517 88 24 1.0 5.0 0.00 0.00 0.00 61 1015.0
20260904151518 88 59 2.0 6.0 0.00 0.00 0.00 62 1014.9
20260904150518 88 344 1.0 3.0 0.00 0.00 0.00 62 1015.0
20260904145518 87 353 1.0 5.0 0.00 0.00 0.00 62 1015.0
20260904144518 87 326 1.0 5.0 0.00 0.00 0.00 63 1014.7
20260904143515 87 267 1.0 5.0 0.00 0.00 0.00 64 1014.7
20260904142515 86 287 0.0 2.0 0.00 0.00 0.00 65 1014.9
20260904141515 85 347 0.0 2.0 0.00 0.00 0.00 66 1014.7
20260904140516 85 352 1.0 3.0 0.00 0.00 0.00 66 1014.7
20260904135516 84 76 1.0 3.0 0.00 0.00 0.00 67 1014.7
20260904134516 84 71 1.0 3.0 0.00 0.00 0.00 70 1014.7
20260904133516 84 75 0.0 3.0 0.00 0.00 0.00 68 1014.7
20260904132517 83 0.0 0.0 0.00 0.00 0.00 70 1014.6
20260904131517 81 239 0.0 2.0 0.00 0.00 0.00 72 1014.4
20260904130517 80 225 0.0 2.0 0.00 0.00 0.00 74 1014.3
20260904125517 79 146 0.0 2.0 0.00 0.00 0.00 77 1014.1
20260904124517 77 270 0.0 1.0 0.00 0.00 0.00 80 1014.0
20260904123517 77 232 0.0 1.0 0.00 0.00 0.00 81 1013.7
20260904122517 76 227 0.0 2.0 0.00 0.00 0.00 83 1013.6
20260904121518 75 0.0 0.0 0.00 0.00 0.00 84 1013.5
20260904120518 75 0.0 0.0 0.00 0.00 0.00 84 1013.5
20260904115518 75 0.0 0.0 0.00 0.00 0.00 84 1013.5